This demonstration page uses our WeatherBlox Daily Observations layout. Learn more.

Left ArrowRight Arrow

44.8408, -93.29828

Hourly Observations for July 15, 2017

Temp ( °F °C ) Dew Point ( °F °C ) Humidity (%) Winds ( mph kmh ) Pressure ( in mb ) Visibility ( mi km ) Precip ( " mm )
12:53 am 00:53 Mostly Clear 67 19.4 57 13.9 71 71 S 5 7 30.13 1020 10 16 0.00 0.00
1:53 am 01:53 Clear 66 18.9 58 14.4 75 75 S 6 9 30.11 1020 10 16 0.00 0.00
2:53 am 02:53 Clear 64 17.8 57 13.9 78 78 SE 6 9 30.10 1019 10 16 0.00 0.00
3:53 am 03:53 Mostly Clear 63 17.2 57 13.9 81 81 ESE 3 6 30.09 1019 10 16 0.00 0.00
4:53 am 04:53 Mostly Cloudy 65 18.3 58 14.4 78 78 SSW 3 6 30.09 1019 10 16 0.00 0.00
5:53 am 05:53 Mostly Cloudy 65 18.3 58 14.4 78 78 S 6 9 30.07 1018 10 16 0.00 0.00
6:53 am 06:53 Mostly Cloudy 68 20 59 15 73 73 SSW 8 13 30.07 1018 10 16 0.00 0.00
7:53 am 07:53 Partly Cloudy 70 21.1 61 16.1 73 73 SSW 7 11 30.06 1018 10 16 0.00 0.00
8:53 am 08:53 Partly Cloudy 74 23.3 64 17.8 71 71 SSW 7 11 30.05 1018 10 16 0.00 0.00
9:53 am 09:53 Partly Cloudy 78 25.6 66 18.9 67 67 WSW 12 19 30.03 1017 10 16 0.00 0.00
10:53 am 10:53 Partly Cloudy 82 27.8 68 20 63 63 SW 10 17 30.02 1017 10 16 0.00 0.00
11:53 am 11:53 Mostly Sunny 86 30 69 20.6 57 57 W 9 15 30.00 1016 10 16 0.00 0.00
12:53 pm 12:53 Mostly Sunny 89 31.7 70 21.1 53 53 W 9 15 29.99 1016 10 16 0.00 0.00
1:53 pm 13:53 Mostly Sunny 90 32.2 70 21.1 52 52 WSW 10 17 29.98 1015 10 16 0.00 0.00
2:53 pm 14:53 Partly Cloudy 93 33.9 68 20 44 44 W 13 20 29.96 1015 10 16 0.00 0.00
3:53 pm 15:53 Mostly Cloudy 93 33.9 68 20 44 44 NW 14 22 29.95 1014 10 16 0.00 0.00
4:53 pm 16:53 Partly Cloudy 94 34.4 67 19.4 41 41 N 12 19 29.94 1014 10 16 0.00 0.00
5:53 pm 17:53 Partly Cloudy 92 33.3 67 19.4 44 44 NNW 16 26 29.95 1014 10 16 0.00 0.00
6:53 pm 18:53 Mostly Sunny 90 32.2 62 16.7 39 39 N 14 22 29.95 1014 10 16 0.00 0.00
7:53 pm 19:53 Mostly Sunny 85 29.4 64 17.8 50 50 NNE 15 24 29.97 1015 10 16 0.00 0.00
8:53 pm 20:53 Sunny 82 27.8 62 16.7 51 51 N 9 15 29.97 1015 10 16 0.00 0.00
9:53 pm 21:53 Clear 81 27.2 62 16.7 53 53 N 13 20 29.99 1016 10 16 0.00 0.00
10:53 pm 22:53 Clear 78 25.6 63 17.2 60 60 N 9 15 30.01 1016 10 16 0.00 0.00
11:53 pm 23:53 Clear 76 24.4 62 16.7 62 62 NNE 13 20 30.01 1016 10 16 0.00 0.00

Powered by AerisWeather